sat.trackr.live / text

‹ back to catalog

STARLINK-3774

NORAD 52680 · 2022-053AA

PAYLOAD ACTIVE UNKNOWN

§ Identity

Operator
Country
US
Launch date
2022-05-18
Launch site
AFETR
Launch vehicle
Mass (kg)
RCS (m²)

Purposes: comms

External: N2YO · Heavens-Above · Gunter

§ Orbital elements

Epoch: 2026-09-20T04:00:03.000096Z

Period
94.31 min
Inclination
53.1590°
Eccentricity
0.0002053
Mean motion
15.26880371 rev/d
Perigee alt
483.7 km
Apogee alt
486.6 km
Semi-major
6,863.3 km
B*
3.0868e-3
RAAN
348.7075°
Arg perigee
104.7889°
Mean anomaly
3.6074°
Rev number
584

§ Raw data

STARLINK-37741 52680U 22053AA  26263.16670139  .00083173  00000+0  30868-2 0  99932 52680  53.1590 348.7075 0002053 104.7889   3.6074 15.26880371  5845

JSON: /api/v1/satellites/52680 · /tle

For live sub-satellite position, see the globe view (requires WebGL).

§ Visibility from observer

Set your observer location to see the next 7 days of passes ≥ 10°. The values pass through the URL so the page stays shareable.

No JS? Fill the form by hand. The geolocation button needs JavaScript.